User: anonymous   Login
Location: Unspecified
(0.0000°N, 0.0000°E)
Time: 21:56:06
(UTC+00:00)
Language:

Nova 2 - Orbit

View from above orbital plane
View from above orbital plane
View from above satellite
View from above satellite

Ground track
Ground track

The orbit data is extracted from the following two-line orbital elements,

1 19223U 88052A   17082.94369503 +.00000050 +00000-0 +96747-4 0  9999
2 19223 089.9586 087.2891 0031472 148.9428 269.7984 13.22647011388328
Epoch (UTC): 23 March 2017 22:38:55
Eccentricity: 0.0031472
inclination: 89.9586°
perigee height: 1151 km
apogee height: 1198 km
right ascension of ascending node: 87.2891°
argument of perigee: 148.9428°
revolutions per day: 13.22647011
mean anomaly at epoch: 269.7984°
orbit number at epoch: 38832

The dashed part of the orbit path shows where the satellite is in the earth's shadow,  

DLR